sat.trackr.live / text

‹ back to catalog

ASBM-1

NORAD 60422 · 2024-143A

PAYLOAD ACTIVE UNKNOWN

§ Identity

Operator
Country
NOR
Launch date
2024-08-12
Launch site
AFWTR
Launch vehicle
Mass (kg)
RCS (m²)

External: N2YO · Heavens-Above · Gunter

§ Orbital elements

Epoch: 2026-05-21T21:44:59.911008Z

Period
957.27 min
Inclination
62.8377°
Eccentricity
0.5599565
Mean motion
1.50427793 rev/d
Perigee alt
7,780.2 km
Apogee alt
43,813.2 km
Semi-major
32,174.8 km
B*
0.0000e+0
RAAN
46.5123°
Arg perigee
269.2591°
Mean anomaly
29.7969°
Rev number
1,122

§ Raw data

ASBM-11 60422U 24143A   26141.90624897 -.00000061  00000+0  00000+0 0  99932 60422  62.8377  46.5123 5599565 269.2591  29.7969  1.50427793 11224

JSON: /api/v1/satellites/60422 · /tle

For live sub-satellite position, see the globe view (requires WebGL).

§ Visibility from observer

Set your observer location to see the next 7 days of passes ≥ 10°. The values pass through the URL so the page stays shareable.

No JS? Fill the form by hand. The geolocation button needs JavaScript.